[[{"header":{"parameterUnit":"m.s-1","parameterCategory":1,"la1":30.2991,"la2":30.254,"lo1":-89.0895,"lo2":-89.0444,"dy":0.0017,"dx":0.0017,"nx":28,"ny":28,"refTime":"2025-09-06T21:00:00:Z","depth":0,"parameterNumber":2,"parameterNumberName":"U-component_of_WINDS"},"data":[0,0,0,0,0,0,0,0,0,0,0,0,0,0,0,0,0,0,0,0,0,0,0,0,0,0,0,0,0,0,0,0,0,0,0,0,0,0,0,0,0,0,0,0,0,0,0,0,0,0,0,0,0,0,0,0,0,0,-0.9732,-0.9731,0,-0.9652,-0.9651,-0.965,-0.9605,-0.9605,-0.9605,-0.9604,-0.952,-0.9518,-0.9516,0,0,0,0,0,0,0,0,0,0,0,0,0,-0.9845,-0.9844,-0.9732,-0.9731,-0.973,-0.9652,-0.9651,-0.965,-0.9605,-0.9605,-0.9605,-0.9604,-0.9521,-0.9518,-0.9516,0,0,0,0,0,0,0,0,0,0,0,0,0,-0.9784,-0.9843,-0.9733,-0.9699,-0.9695,-0.9652,-0.9651,-0.9649,-0.9605,-0.9605,-0.9605,-0.9604,-0.9522,-0.9519,-0.9515,-0.95,0,0,-0.9506,-0.9504,0,0,0,0,0,0,0,0,-0.9787,-0.978,-0.9705,-0.9701,-0.9697,-0.9638,-0.966,-0.9599,-0.9605,-0.9639,-0.9604,-0.9604,-0.9559,-0.9553,-0.9538,-0.9496,-0.9492,-0.9505,-0.9504,-0.9502,-0.9501,0,0,0,0,0,0,0,-0.9792,-0.9783,-0.97,-0.9704,-0.9699,-0.9687,-0.9678,-0.9648,-0.9601,-0.9636,-0.9633,-0.9624,-0.9557,-0.9542,-0.9536,-0.9491,-0.9506,-0.9503,-0.9501,-0.95,-0.9431,-0.9431,0,0,0,0,0,0,-0.9802,-0.9787,-0.9703,-0.9698,-0.9742,-0.9685,-0.9675,-0.9657,-0.9602,-0.9593,-0.9624,-0.9622,-0.9547,-0.954,-0.9533,-0.9511,-0.9502,-0.9499,-0.9497,-0.9431,-0.9431,-0.9431,0,0,0,0,0,0,-0.9804,-0.9795,-0.9706,-0.9741,-0.9729,-0.9683,-0.9664,-0.9656,-0.964,-0.9592,-0.9584,-0.9617,-0.9547,-0.9537,-0.9508,-0.9507,-0.9498,-0.9495,-0.9431,-0.9431,-0.9431,-0.9467,0,0,0,0,0,0,-0.9808,-0.9796,-0.979,-0.9742,-0.9728,-0.9684,-0.9664,-0.9654,-0.9635,-0.9631,-0.9583,-0.9575,-0.9546,-0.9513,-0.9505,-0.9503,-0.9492,-0.9431,-0.9431,-0.9431,-0.9466,-0.9468,-0.9471,0,0,0,0,0,-0.9812,-0.9803,-0.979,-0.978,-0.9719,-0.9684,-0.9676,-0.9643,-0.9635,-0.9628,-0.9598,-0.9577,-0.9509,-0.9511,-0.9501,-0.9498,-0.9431,-0.9431,-0.9431,-0.9465,-0.9468,-0.9471,0,0,0,0,0,0,-0.9851,-0.9796,-0.9781,-0.9756,-0.9725,-0.9676,-0.9667,-0.9647,-0.9617,-0.9615,-0.9575,-0.9564,-0.9539,-0.9515,-0.9519,-0.948,-0.9468,-0.9466,-0.9496,-0.9499,-0.9501,-0.9508,-0.949,0,0,0,0,0,-0.9857,-0.9834,-0.9786,-0.9769,-0.9754,-0.9713,-0.9697,-0.9674,-0.964,-0.9626,-0.9594,-0.9561,-0.9532,-0.9514,-0.9485,-0.9462,-0.9451,-0.9455,-0.9457,-0.946,-0.9459,-0.9445,-0.9446,-0.9432,-0.9432,-0.9432,0,0,-0.9869,-0.9836,-0.9823,-0.9776,-0.9749,-0.9725,-0.9703,-0.9678,-0.966,-0.9622,-0.9593,-0.9568,-0.9529,-0.9503,-0.949,-0.9482,-0.946,-0.946,-0.9462,-0.946,-0.9445,-0.9446,-0.9448,-0.9432,-0.9432,-0.9432,0,0,-0.9879,-0.9851,-0.9834,-0.9808,-0.9768,-0.9741,-0.9737,-0.9691,-0.9673,-0.9643,-0.9615,-0.9592,-0.9543,-0.9516,-0.9496,-0.9496,-0.9475,-0.9487,-0.95,-0.9487,-0.9488,-0.9489,-0.9489,-0.9489,-0.9486,-0.9487,-0.9487,0,-0.9898,-0.9862,-0.9827,-0.9804,-0.9784,-0.975,-0.9732,-0.9708,-0.966,-0.9647,-0.9639,-0.9578,-0.9549,-0.9516,-0.9516,-0.9501,-0.9495,-0.9493,-0.9491,-0.9491,-0.9491,-0.9491,-0.9491,-0.9488,-0.9488,-0.9488,-0.9488,0,-0.9888,-0.9863,-0.9853,-0.9809,-0.9788,-0.9767,-0.9729,-0.9712,-0.9691,-0.9664,-0.9634,-0.9598,-0.9561,-0.9552,-0.9531,-0.9516,-0.9513,-0.9499,-0.9486,-0.9495,-0.9494,-0.9493,-0.9491,-0.949,-0.949,-0.9489,0,0,-0.992,-0.9857,-0.9854,-0.9834,-0.9787,-0.9767,-0.9745,-0.9709,-0.9695,-0.9663,-0.9643,-0.9603,-0.9589,-0.9567,-0.9543,-0.9531,-0.9533,-0.9518,-0.9516,-0.9522,-0.9514,-0.9525,-0.9526,-0.9519,-0.9519,-0.9518,-0.9517,0,-0.9923,-0.9882,-0.985,-0.9821,-0.9798,-0.9765,-0.9745,-0.9714,-0.9689,-0.9665,-0.9636,-0.9608,-0.9593,-0.9579,-0.9566,-0.9535,-0.9531,-0.9535,-0.95,-0.9499,-0.9511,-0.9525,-0.9537,-0.9537,-0.9517,-0.9517,-0.9517,0,-0.9921,-0.9891,-0.986,-0.9816,-0.9805,-0.9788,-0.9753,-0.973,-0.9694,-0.9676,-0.9652,-0.9626,-0.9601,-0.959,-0.9554,-0.9558,-0.9542,-0.9525,-0.9524,-0.9519,-0.9509,-0.9521,-0.9537,-0.9537,-0.9515,-0.9515,-0.9516,0,-0.9948,-0.99,-0.9875,-0.9858,-0.9806,-0.9795,-0.9773,-0.9737,-0.9717,-0.9686,-0.9673,-0.964,-0.9621,-0.9596,-0.9562,-0.9557,-0.953,-0.9516,-0.9514,-0.9515,-0.951,-0.9511,-0.9523,-0.9499,-0.9499,-0.9499,-0.9499,0,-0.9954,-0.9936,-0.9886,-0.9871,-0.985,-0.9813,-0.9794,-0.9768,-0.9736,-0.9715,-0.9684,-0.9665,-0.9622,-0.9597,-0.957,-0.9545,-0.9536,-0.9521,-0.9514,-0.9524,-0.9526,-0.9513,-0.9512,-0.9499,-0.9499,-0.9499,-0.9499,0,-0.9981,-0.9946,-0.9917,-0.9871,-0.9858,-0.9845,-0.9805,-0.9788,-0.9761,-0.9735,-0.9727,-0.9684,-0.9653,-0.9617,-0.9574,-0.9556,-0.9533,-0.9523,-0.9546,-0.9542,-0.9542,-0.9542,-0.9547,-0.9545,-0.9522,-0.9522,-0.9523,0,-0.9987,-0.9973,-0.9925,-0.9909,-0.9888,-0.9862,-0.9843,-0.9806,-0.9786,-0.9744,-0.9733,-0.97,-0.9672,-0.9624,-0.9589,-0.9556,-0.9545,-0.9549,-0.954,-0.955,-0.9545,-0.9547,-0.9545,-0.9552,-0.9552,-0.9552,-0.9553,0,-1.0003,-0.9986,-0.996,-0.9927,-0.9904,-0.9877,-0.9847,-0.9836,-0.9793,-0.9773,-0.9741,-0.972,-0.9676,-0.9644,-0.9607,-0.9583,-0.9561,-0.9556,-0.9553,-0.9563,-0.9577,-0.957,-0.9553,-0.9556,-0.9555,-0.9555,-0.9555,-0.9555,-1.0019,-1.0005,-0.9969,-0.994,-0.9915,-0.9888,-0.9871,-0.9842,-0.9815,-0.9777,-0.9757,-0.9726,-0.969,-0.9638,-0.9615,-0.959,-0.9582,-0.9579,-0.9578,-0.9578,-0.9581,-0.9581,-0.9583,-0.9583,-0.9583,-0.9583,-0.9582,0,-1.0033,-1.0009,-0.9982,-0.9943,-0.992,-0.9902,-0.9868,-0.985,-0.9824,-0.9792,-0.9765,-0.9729,-0.9698,-0.966,-0.9626,-0.9613,-0.9602,-0.9606,-0.9606,-0.9601,-0.959,-0.9595,-0.9615,-0.9615,-0.9615,-0.9615,-0.9615,-0.9615,-1.0038,-1.0013,-0.9993,-0.9955,-0.9929,-0.99,-0.9882,-0.9857,-0.9832,-0.9794,-0.9768,-0.9744,-0.9709,-0.9673,-0.9643,-0.9633,-0.9622,-0.9628,-0.9615,-0.9605,-0.9602,-0.9599,-0.9604,-0.9626,-0.9626,-0.9628,-0.9629,-0.9629]},{"header":{"parameterUnit":"m.s-1","parameterCategory":1,"la1":30.2991,"la2":30.254,"lo1":-89.0895,"lo2":-89.0444,"dy":0.0017,"dx":0.0017,"nx":28,"ny":28,"refTime":"2025-09-06T21:00:00:Z","depth":0,"parameterNumber":3,"parameterNumberName":"V-component_of_WINDS"},"data":[0,0,0,0,0,0,0,0,0,0,0,0,0,0,0,0,0,0,0,0,0,0,0,0,0,0,0,0,0,0,0,0,0,0,0,0,0,0,0,0,0,0,0,0,0,0,0,0,0,0,0,0,0,0,0,0,0,0,-1.3834,-1.3834,0,-1.3768,-1.3767,-1.3767,-1.3738,-1.3738,-1.3738,-1.3739,-1.3666,-1.3664,-1.3662,0,0,0,0,0,0,0,0,0,0,0,0,0,-1.3935,-1.3934,-1.3835,-1.3834,-1.3833,-1.3768,-1.3767,-1.3766,-1.3738,-1.3738,-1.3738,-1.3739,-1.3667,-1.3665,-1.3662,0,0,0,0,0,0,0,0,0,0,0,0,0,-1.3882,-1.3933,-1.3835,-1.3811,-1.3808,-1.3768,-1.3767,-1.3766,-1.3738,-1.3738,-1.3739,-1.3739,-1.3668,-1.3665,-1.3662,-1.3639,0,0,-1.3652,-1.3651,0,0,0,0,0,0,0,0,-1.3885,-1.3879,-1.3815,-1.3813,-1.381,-1.3762,-1.3776,-1.3723,-1.3738,-1.3765,-1.3739,-1.3739,-1.3698,-1.3692,-1.3679,-1.3636,-1.3633,-1.3652,-1.365,-1.3649,-1.3648,0,0,0,0,0,0,0,-1.3889,-1.3881,-1.3808,-1.3815,-1.3811,-1.3803,-1.3796,-1.3766,-1.3731,-1.3762,-1.376,-1.3753,-1.3696,-1.3682,-1.3677,-1.3631,-1.3652,-1.365,-1.3648,-1.3646,-1.3568,-1.3568,0,0,0,0,0,0,-1.3897,-1.3885,-1.381,-1.3806,-1.3849,-1.3801,-1.3793,-1.3777,-1.3731,-1.3724,-1.3753,-1.3752,-1.3687,-1.3681,-1.3675,-1.3647,-1.3649,-1.3646,-1.3644,-1.3569,-1.3568,-1.3568,0,0,0,0,0,0,-1.3899,-1.3891,-1.3813,-1.3845,-1.3834,-1.3799,-1.3781,-1.3775,-1.3761,-1.3724,-1.3717,-1.3745,-1.3687,-1.3679,-1.3649,-1.3644,-1.3645,-1.3642,-1.3569,-1.3569,-1.3568,-1.3589,0,0,0,0,0,0,-1.3902,-1.3892,-1.3883,-1.3845,-1.3833,-1.3789,-1.3781,-1.3774,-1.3757,-1.3755,-1.3715,-1.3708,-1.3687,-1.3654,-1.3646,-1.3639,-1.364,-1.3569,-1.3569,-1.3568,-1.3589,-1.359,-1.3591,0,0,0,0,0,-1.3906,-1.389,-1.3883,-1.3874,-1.3821,-1.3789,-1.3782,-1.3758,-1.3756,-1.3747,-1.3724,-1.371,-1.3646,-1.3651,-1.3642,-1.3634,-1.3569,-1.3569,-1.3568,-1.3589,-1.359,-1.359,0,0,0,0,0,0,-1.3926,-1.3884,-1.3876,-1.3847,-1.3822,-1.3784,-1.3772,-1.3759,-1.3733,-1.3732,-1.3703,-1.3694,-1.3667,-1.3647,-1.3654,-1.3611,-1.3606,-1.3604,-1.3625,-1.3626,-1.3626,-1.3632,-1.3637,0,0,0,0,0,-1.3927,-1.3906,-1.387,-1.3848,-1.3836,-1.3806,-1.3791,-1.3776,-1.3748,-1.3736,-1.371,-1.3683,-1.3657,-1.364,-1.3614,-1.3586,-1.3578,-1.3577,-1.3578,-1.3578,-1.3577,-1.3563,-1.3562,-1.3566,-1.3566,-1.3566,0,0,-1.3929,-1.3904,-1.3891,-1.3852,-1.383,-1.3808,-1.3797,-1.3773,-1.3757,-1.3732,-1.3703,-1.3684,-1.3651,-1.3623,-1.3609,-1.3606,-1.3574,-1.3578,-1.3579,-1.3576,-1.3562,-1.3562,-1.3561,-1.3566,-1.3566,-1.3566,0,0,-1.3922,-1.39,-1.3881,-1.386,-1.3829,-1.381,-1.3806,-1.377,-1.3757,-1.3728,-1.371,-1.3689,-1.3644,-1.3622,-1.3605,-1.3594,-1.358,-1.3586,-1.3589,-1.3576,-1.3576,-1.3575,-1.3572,-1.3571,-1.3584,-1.3584,-1.3584,0,-1.3928,-1.3894,-1.3872,-1.385,-1.3834,-1.3813,-1.3794,-1.3774,-1.3735,-1.3724,-1.3722,-1.3667,-1.3643,-1.3611,-1.3609,-1.3595,-1.3589,-1.359,-1.3578,-1.3577,-1.3576,-1.3573,-1.3572,-1.3585,-1.3585,-1.3585,-1.3585,0,-1.3904,-1.3882,-1.3869,-1.3835,-1.3817,-1.3797,-1.3771,-1.3755,-1.3742,-1.3723,-1.3695,-1.3666,-1.3635,-1.3626,-1.3612,-1.3592,-1.3592,-1.3584,-1.3578,-1.3577,-1.3574,-1.3572,-1.3586,-1.3586,-1.3586,-1.3585,0,0,-1.3905,-1.3862,-1.3858,-1.3843,-1.3809,-1.379,-1.3769,-1.3741,-1.3729,-1.3703,-1.3685,-1.3649,-1.3643,-1.3623,-1.3607,-1.3595,-1.3589,-1.3588,-1.3587,-1.3591,-1.3568,-1.3574,-1.3573,-1.3581,-1.358,-1.358,-1.3571,0,-1.3894,-1.3857,-1.3838,-1.3809,-1.3788,-1.377,-1.3752,-1.3728,-1.3711,-1.369,-1.367,-1.3646,-1.3638,-1.3627,-1.3615,-1.3593,-1.3584,-1.3593,-1.3563,-1.3562,-1.3573,-1.3571,-1.3577,-1.357,-1.3569,-1.3569,-1.3569,0,-1.3875,-1.3853,-1.3823,-1.3794,-1.3784,-1.3768,-1.3742,-1.3723,-1.3696,-1.3684,-1.3665,-1.3649,-1.3626,-1.3624,-1.3592,-1.3599,-1.3585,-1.3573,-1.3572,-1.3568,-1.3566,-1.3568,-1.3567,-1.3566,-1.3566,-1.3566,-1.3566,0,-1.3882,-1.3844,-1.3821,-1.3809,-1.3773,-1.3763,-1.3748,-1.3722,-1.3707,-1.3683,-1.3673,-1.3647,-1.3632,-1.3612,-1.359,-1.3589,-1.3561,-1.3556,-1.355,-1.3551,-1.3545,-1.3545,-1.3542,-1.3536,-1.3536,-1.3536,-1.3536,0,-1.3871,-1.3854,-1.3824,-1.381,-1.379,-1.3768,-1.3749,-1.3732,-1.371,-1.3692,-1.3674,-1.3657,-1.3629,-1.3609,-1.3591,-1.3568,-1.3561,-1.3551,-1.3547,-1.3553,-1.3555,-1.3544,-1.3544,-1.3535,-1.3536,-1.3536,-1.3536,0,-1.3874,-1.3853,-1.3828,-1.3798,-1.379,-1.3777,-1.3751,-1.3737,-1.3719,-1.3697,-1.3691,-1.3663,-1.3639,-1.3615,-1.3581,-1.357,-1.3548,-1.3541,-1.3557,-1.3555,-1.3551,-1.3553,-1.3541,-1.3539,-1.3534,-1.3534,-1.3534,0,-1.3869,-1.3856,-1.3825,-1.3813,-1.3799,-1.3779,-1.3765,-1.3743,-1.3728,-1.3699,-1.3689,-1.3664,-1.3643,-1.3605,-1.3581,-1.3556,-1.3549,-1.3548,-1.3545,-1.3553,-1.3551,-1.3552,-1.3551,-1.3548,-1.3548,-1.3549,-1.3549,0,-1.3863,-1.3854,-1.3835,-1.3813,-1.3796,-1.3777,-1.3757,-1.3748,-1.3722,-1.3706,-1.3683,-1.3667,-1.3635,-1.3611,-1.3584,-1.3567,-1.3553,-1.355,-1.3547,-1.3554,-1.3564,-1.356,-1.356,-1.355,-1.355,-1.355,-1.355,-1.355,-1.3862,-1.3851,-1.3828,-1.3808,-1.3791,-1.3773,-1.376,-1.3742,-1.3722,-1.3696,-1.3684,-1.366,-1.3636,-1.3599,-1.3582,-1.3563,-1.356,-1.3556,-1.3555,-1.3555,-1.3557,-1.3568,-1.3558,-1.3558,-1.3558,-1.3558,-1.3558,0,-1.3856,-1.3842,-1.3823,-1.3798,-1.3782,-1.3773,-1.3751,-1.3738,-1.3718,-1.3697,-1.3678,-1.3652,-1.3629,-1.3605,-1.358,-1.357,-1.3563,-1.3564,-1.3565,-1.3561,-1.3561,-1.3566,-1.357,-1.357,-1.357,-1.357,-1.357,-1.357,-1.3852,-1.3832,-1.3821,-1.3793,-1.3778,-1.3757,-1.3745,-1.3729,-1.3713,-1.3685,-1.3667,-1.3652,-1.3629,-1.3604,-1.3582,-1.3576,-1.3568,-1.3571,-1.3562,-1.3562,-1.3561,-1.356,-1.3565,-1.3569,-1.3569,-1.3564,-1.3564,-1.3564]}]]